When you browse on this site, cookies collect data to enhance your experience and personalize the content and advertising you see.
Visit our Privacy Policy to learn more. By continuing to use the site, you agree to this use of cookies and data.
  • In United Kingdom
  • List of Countries
  • For 7 days
  • Water Temperature
  • Satellite Maps
  • Weather Map
  • Weather Widgets
  • user-avatar
    Login

    Hourly Weather Kabwe

    Today, 21 May, Tuesday

    Time Temperature Precipitation Wind Pressure Humidity
    00:00 +18°C° 0 mm 1 mps 663 mmHg 64%
    01:00 +18°C° 0 mm 1 mps 662 mmHg 66%
    02:00 +16°C° 0 mm 1 mps 662 mmHg 70%
    03:00 +16°C° 0 mm 1 mps 662 mmHg 71%
    04:00 +16°C° 0 mm 1 mps 662 mmHg 73%
    05:00 +16°C° 0 mm 1 mps 662 mmHg 74%
    06:00 +18°C° 0 mm 1 mps 663 mmHg 71%
    07:00 +18°C° 0 mm 2 mps 663 mmHg 68%
    08:00 +20°C° 0 mm 2 mps 664 mmHg 63%
    09:00 +23°C° 0 mm 2 mps 664 mmHg 56%
    10:00 +25°C° 0 mm 2 mps 665 mmHg 48%
    11:00 +27°C° 0 mm 2 mps 665 mmHg 41%
    12:00 +28°C° 0 mm 2 mps 665 mmHg 39%
    13:00 +29°C° 0 mm 2 mps 664 mmHg 36%
    14:00 +29°C° 0 mm 2 mps 664 mmHg 33%
    15:00 +28°C° 0 mm 2 mps 664 mmHg 37%
    16:00 +27°C° 0 mm 1 mps 663 mmHg 41%
    17:00 +26°C° 0 mm 1 mps 663 mmHg 45%
    18:00 +24°C° 0 mm 1 mps 662 mmHg 48%
    19:00 +23°C° 0 mm 2 mps 662 mmHg 51%
    20:00 +20°C° 0 mm 2 mps 662 mmHg 54%
    21:00 +19°C° 0 mm 2 mps 663 mmHg 56%
    22:00 +18°C° 0 mm 2 mps 663 mmHg 59%
    23:00 +18°C° 0 mm 2 mps 663 mmHg 62%

    Tomorrow, 22 May, Wednesday

    Time Temperature Precipitation Wind Pressure Humidity
    00:00 +17°C° 0 mm 2 mps 663 mmHg 64%
    01:00 +18°C° 0 mm 1 mps 663 mmHg 65%
    02:00 +18°C° 0 mm 1 mps 662 mmHg 67%
    03:00 +16°C° 0 mm 1 mps 662 mmHg 69%
    04:00 +16°C° 0 mm 1 mps 662 mmHg 70%
    05:00 +15°C° 0 mm 1 mps 662 mmHg 72%
    06:00 +17°C° 0 mm 2 mps 663 mmHg 68%
    07:00 +18°C° 0 mm 3 mps 664 mmHg 63%
    08:00 +19°C° 0 mm 3 mps 664 mmHg 59%
    09:00 +21°C° 0 mm 3 mps 665 mmHg 53%
    10:00 +23°C° 0 mm 4 mps 665 mmHg 48%
    11:00 +26°C° 0 mm 4 mps 666 mmHg 42%
    12:00 +27°C° 0 mm 4 mps 665 mmHg 39%
    13:00 +27°C° 0 mm 3 mps 665 mmHg 37%
    14:00 +28°C° 0 mm 3 mps 664 mmHg 34%
    15:00 +27°C° 0 mm 3 mps 664 mmHg 38%
    16:00 +26°C° 0 mm 2 mps 663 mmHg 41%
    17:00 +25°C° 0 mm 2 mps 663 mmHg 44%
    18:00 +23°C° 0 mm 2 mps 663 mmHg 47%
    19:00 +20°C° 0 mm 2 mps 663 mmHg 49%
    20:00 +19°C° 0 mm 2 mps 663 mmHg 52%
    21:00 +18°C° 0 mm 2 mps 663 mmHg 54%
    22:00 +17°C° 0 mm 2 mps 664 mmHg 57%
    23:00 +17°C° 0 mm 2 mps 664 mmHg 59%

    Day after tomorrow, 23 May, Thursday

    Time Temperature Precipitation Wind Pressure Humidity
    00:00 +16°C° 0 mm 2 mps 663 mmHg 60%
    01:00 +16°C° 0 mm 2 mps 663 mmHg 61%
    02:00 +15°C° 0 mm 2 mps 663 mmHg 62%
    03:00 +15°C° 0 mm 2 mps 663 mmHg 63%
    04:00 +14°C° 0 mm 2 mps 663 mmHg 63%
    05:00 +14°C° 0 mm 2 mps 663 mmHg 64%
    06:00 +15°C° 0 mm 2 mps 663 mmHg 60%
    07:00 +16°C° 0 mm 3 mps 664 mmHg 55%
    08:00 +17°C° 0 mm 3 mps 665 mmHg 51%
    09:00 +19°C° 0 mm 3 mps 665 mmHg 45%
    10:00 +21°C° 0 mm 4 mps 666 mmHg 40%
    11:00 +23°C° 0 mm 4 mps 666 mmHg 34%
    12:00 +25°C° 0 mm 4 mps 666 mmHg 33%
    13:00 +26°C° 0 mm 3 mps 665 mmHg 31%
    14:00 +27°C° 0 mm 3 mps 664 mmHg 30%
    15:00 +26°C° 0 mm 3 mps 664 mmHg 33%
    16:00 +25°C° 0 mm 2 mps 663 mmHg 37%
    17:00 +24°C° 0 mm 2 mps 663 mmHg 40%
    18:00 +21°C° 0 mm 2 mps 663 mmHg 44%
    19:00 +19°C° 0 mm 2 mps 663 mmHg 48%
    20:00 +17°C° 0 mm 2 mps 663 mmHg 51%
    21:00 +16°C° 0 mm 2 mps 663 mmHg 54%
    22:00 +16°C° 0 mm 2 mps 663 mmHg 56%
    23:00 +15°C° 0 mm 1 mps 664 mmHg 59%

    24 May, Friday

    Time Temperature Precipitation Wind Pressure Humidity
    00:00 +15°C° 0 mm 1 mps 663 mmHg 58%
    01:00 +14°C° 0 mm 1 mps 663 mmHg 58%
    02:00 +14°C° 0 mm 1 mps 663 mmHg 58%
    03:00 +13°C° 0 mm 1 mps 663 mmHg 58%
    04:00 +13°C° 0 mm 1 mps 663 mmHg 58%
    05:00 +12°C° 0 mm 1 mps 663 mmHg 58%
    06:00 +14°C° 0 mm 2 mps 664 mmHg 55%
    07:00 +14°C° 0 mm 3 mps 665 mmHg 53%
    08:00 +15°C° 0 mm 4 mps 665 mmHg 50%
    09:00 +18°C° 0 mm 4 mps 666 mmHg 47%
    10:00 +20°C° 0 mm 4 mps 666 mmHg 44%
    11:00 +22°C° 0 mm 4 mps 666 mmHg 41%
    12:00 +24°C° 0 mm 3 mps 666 mmHg 39%
    13:00 +25°C° 0 mm 3 mps 665 mmHg 38%
    14:00 +26°C° 0 mm 3 mps 664 mmHg 36%
    15:00 +25°C° 0 mm 3 mps 664 mmHg 40%
    16:00 +24°C° 0 mm 2 mps 664 mmHg 43%
    17:00 +24°C° 0 mm 2 mps 663 mmHg 46%
    18:00 +21°C° 0 mm 2 mps 664 mmHg 50%
    19:00 +19°C° 0 mm 2 mps 664 mmHg 54%
    20:00 +17°C° 0 mm 2 mps 664 mmHg 58%
    21:00 +17°C° 0 mm 2 mps 664 mmHg 62%
    22:00 +16°C° 0 mm 2 mps 664 mmHg 66%
    23:00 +16°C° 0 mm 2 mps 664 mmHg 69%

    25 May, Saturday

    Time Temperature Precipitation Wind Pressure Humidity
    00:00 +15°C° 0 mm 2 mps 664 mmHg 72%
    01:00 +15°C° 0 mm 2 mps 664 mmHg 74%
    02:00 +15°C° 0 mm 2 mps 663 mmHg 76%
    03:00 +14°C° 0 mm 2 mps 663 mmHg 80%
    04:00 +14°C° 0 mm 2 mps 663 mmHg 84%
    05:00 +13°C° 0 mm 2 mps 663 mmHg 88%
    06:00 +13°C° 0 mm 3 mps 664 mmHg 83%
    07:00 +16°C° 0 mm 3 mps 665 mmHg 78%
    08:00 +17°C° 0 mm 4 mps 666 mmHg 72%
    09:00 +18°C° 0 mm 4 mps 666 mmHg 67%
    10:00 +20°C° 0 mm 4 mps 666 mmHg 62%
    11:00 +21°C° 0 mm 4 mps 666 mmHg 57%
    12:00 +22°C° 0 mm 4 mps 666 mmHg 56%
    13:00 +22°C° 0 mm 4 mps 665 mmHg 55%
    14:00 +23°C° 0 mm 4 mps 664 mmHg 54%
    15:00 +22°C° 0 mm 3 mps 664 mmHg 57%
    16:00 +21°C° 0 mm 3 mps 664 mmHg 59%
    17:00 +21°C° 0 mm 3 mps 663 mmHg 62%
    18:00 +19°C° 0 mm 3 mps 664 mmHg 69%
    19:00 +17°C° 0 mm 2 mps 664 mmHg 76%
    20:00 +15°C° 0 mm 2 mps 664 mmHg 82%
    21:00 +15°C° 0 mm 2 mps 664 mmHg 85%
    22:00 +15°C° 0 mm 1 mps 664 mmHg 87%
    23:00 +14°C° 0 mm 1 mps 664 mmHg 90%

    26 May, Sunday

    Time Temperature Precipitation Wind Pressure Humidity
    00:00 +14°C° 0 mm 1 mps 663 mmHg 91%
    01:00 +14°C° 0 mm 1 mps 663 mmHg 92%
    02:00 +13°C° 0 mm 1 mps 663 mmHg 94%
    03:00 +13°C° 0 mm 1 mps 663 mmHg 94%
    04:00 +13°C° 0 mm 1 mps 663 mmHg 95%
    05:00 +13°C° 0 mm 2 mps 663 mmHg 96%
    06:00 +14°C° 0 mm 2 mps 664 mmHg 89%
    07:00 +14°C° 0 mm 3 mps 664 mmHg 82%
    08:00 +17°C° 0 mm 4 mps 665 mmHg 75%
    09:00 +19°C° 0 mm 4 mps 665 mmHg 68%
    10:00 +21°C° 0 mm 3 mps 666 mmHg 60%
    11:00 +24°C° 0 mm 3 mps 666 mmHg 52%
    12:00 +25°C° 0 mm 3 mps 665 mmHg 50%
    13:00 +26°C° 0 mm 3 mps 665 mmHg 47%
    14:00 +27°C° 0 mm 3 mps 664 mmHg 44%
    15:00 +26°C° 0 mm 3 mps 664 mmHg 47%
    16:00 +25°C° 0 mm 2 mps 663 mmHg 50%
    17:00 +24°C° 0 mm 2 mps 663 mmHg 53%
    18:00 +21°C° 0 mm 2 mps 663 mmHg 57%
    19:00 +20°C° 0 mm 2 mps 663 mmHg 62%
    20:00 +18°C° 0 mm 2 mps 663 mmHg 66%
    21:00 +17°C° 0 mm 2 mps 663 mmHg 68%
    22:00 +17°C° 0 mm 2 mps 663 mmHg 70%
    23:00 +16°C° 0 mm 2 mps 663 mmHg 73%
    Show more